Find Starlink 30479

NORAD ID: 57898 Int'l Des: 2023-146 Owner: SPXS Country: US Constellation: starlink operational
LEOCIRCULAR

リアルタイム位置

3D地球を読み込み中...

Starlink 30479について

説明を読み込み中...

次回通過

Passes for default location (London). Set your location on the main map for personalized predictions.

高度履歴

Loading altitude history...

軌道要素

1 57898U 23146H 26126.02071541 .00001496 00000-0 63903-4 0 9995
2 57898 43.0062 350.4834 0001343 270.6931 89.3767 15.27577204145820
Epoch: May 6, 2026 • Age: 17 hours

現在のステータス

高度 484.2 km
速度 7.63 km/s
衛星直下点 29.85°N, 109.94°W
打ち上げ日 Sep 20, 2023
運用期間 2.6 years
タイプ internet

技術仕様

分類 Payload
質量 730.00 kg
乾燥質量 700.00 kg
総質量 730.00 kg
長さ 0.30 m
直径 4.10 m
スパン 29.00 m
形状 Box + pan
製造者 SPXS
バスタイプ Starlink V2M
フェーズステータス In Orbit
所有者/国 SPXS/US

Most Searched